DW4554 Weather Reports


time (UTC)temp
F
wind
direction
speed
knots
gust
knots
rain 1hr
in
rain 24hr
in
rain mn
in
humidity
%
barometer
mb
20260903123404 74 225 0.0 1.7 0.00 0.00 0.00 58 1016.8
20260903122904 74 225 0.0 2.6 0.00 0.00 0.00 58 1016.8
20260903121904 73 238 0.0 0.9 0.00 0.00 0.00 60 1017.0
20260903121404 73 238 0.0 2.6 0.00 0.00 0.00 58 1017.1
20260903120404 74 236 2.6 6.1 0.00 0.00 0.00 58 1017.1
20260903115404 74 232 1.7 7.0 0.00 0.00 0.00 57 1017.2
20260903114904 74 214 2.6 8.7 0.00 0.00 0.00 56 1017.2
20260903114405 74 226 3.5 8.7 0.00 0.00 0.00 57 1017.2
20260903113404 74 207 5.2 10.4 0.00 0.00 0.00 57 1017.2
20260903112904 73 152 2.6 7.8 0.00 0.00 0.00 59 1017.1
20260903112404 73 182 1.7 5.2 0.00 0.00 0.00 59 1017.2
20260903111405 73 205 2.6 5.2 0.00 0.00 0.00 63 1017.3
20260903110904 73 201 3.5 7.8 0.00 0.00 0.00 64 1017.3
20260903105904 72 175 2.6 4.3 0.00 0.00 0.00 65 1017.4
20260903105404 72 157 1.7 4.3 0.00 0.00 0.00 64 1017.4
20260903104904 72 156 0.9 2.6 0.00 0.00 0.00 65 1017.4
20260903104404 72 190 1.7 2.6 0.00 0.00 0.00 65 1017.5
20260903103905 72 188 0.0 2.6 0.00 0.00 0.00 66 1017.5
20260903102404 71 180 0.9 2.6 0.00 0.00 0.00 65 1017.6
20260903101904 71 180 0.9 2.6 0.00 0.00 0.00 65 1017.7
20260903101404 71 180 0.0 1.7 0.00 0.00 0.00 65 1017.7
20260903100904 71 180 0.9 4.3 0.00 0.00 0.00 66 1017.8
20260903100404 71 192 0.9 5.2 0.00 0.00 0.00 66 1017.8
20260903095904 71 191 1.7 5.2 0.00 0.00 0.00 66 1017.8
20260903095405 71 199 1.7 4.3 0.00 0.00 0.00 67 1017.8
20260903094904 71 180 0.0 2.6 0.00 0.00 0.00 65 1017.9
20260903094404 71 180 0.9 4.3 0.00 0.00 0.00 66 1018.0
20260903093904 71 179 1.7 4.3 0.00 0.00 0.00 66 1018.0
20260903093404 71 195 0.9 2.6 0.00 0.00 0.00 66 1018.0
20260903092905 71 227 0.9 4.3 0.00 0.00 0.00 67 1018.1
20260903092404 71 198 1.7 4.3 0.00 0.00 0.00 68 1018.1
20260903091404 71 241 1.7 4.3 0.00 0.00 0.00 67 1018.1
20260903090904 71 295 2.6 5.2 0.00 0.00 0.00 66 1018.2
20260903090404 71 280 2.6 5.2 0.00 0.00 0.00 65 1018.2
20260903085904 71 234 1.7 5.2 0.00 0.00 0.00 67 1018.3
20260903085404 71 310 2.6 6.1 0.00 0.00 0.00 66 1018.3
20260903084904 71 297 4.3 8.7 0.00 0.00 0.00 66 1018.3
20260903084404 71 310 3.5 6.1 0.00 0.00 0.00 67 1018.3
20260903083904 70 287 4.3 7.0 0.00 0.00 0.00 67 1018.3
20260903083404 70 293 3.5 6.1 0.00 0.00 0.00 70 1018.2
20260903082905 70 208 2.6 4.3 0.00 0.00 0.00 74 1018.1
20260903082405 69 197 0.9 2.6 0.00 0.00 0.00 74 1018.2
20260903081904 69 194 1.7 4.3 0.00 0.00 0.00 75 1018.1
20260903080905 68 202 2.6 4.3 0.00 0.00 0.00 77 1018.1
20260903075905 67 184 0.9 1.7 0.00 0.00 0.00 78 1018.0
20260903075405 67 184 0.9 4.3 0.00 0.00 0.00 79 1018.0
20260903074904 66 181 1.7 4.3 0.00 0.00 0.00 82 1018.0
20260903074404 65 175 1.7 5.2 0.00 0.00 0.00 82 1018.1
20260903073904 65 173 1.7 4.3 0.00 0.00 0.00 84 1018.1
20260903073404 64 173 1.7 2.6 0.00 0.00 0.00 84 1018.0
20260903072905 64 173 1.7 4.3 0.00 0.00 0.00 85 1018.0
20260903072404 63 173 2.6 4.3 0.00 0.00 0.00 86 1018.0
20260903071904 63 173 1.7 4.3 0.00 0.00 0.00 88 1018.0
20260903071404 62 173 0.9 2.6 0.00 0.00 0.00 90 1017.9
20260903070904 62 244 1.7 2.6 0.00 0.00 0.00 91 1017.9
20260903070405 61 55 0.9 2.6 0.00 0.00 0.00 92 1018.0
20260903065904 61 55 0.0 1.7 0.00 0.00 0.00 92 1017.9
20260903065404 61 55 0.0 1.7 0.00 0.00 0.00 92 1017.9
20260903064904 60 55 0.0 1.7 0.00 0.00 0.00 93 1017.9
20260903064404 60 55 0.9 2.6 0.00 0.00 0.00 92 1017.9
20260903063905 59 59 0.0 1.7 0.00 0.00 0.00 93 1017.9
20260903062905 59 59 0.9 2.6 0.00 0.00 0.00 92 1018.2
20260903062404 58 55 1.7 2.6 0.00 0.00 0.00 92 1018.0
20260903061904 58 55 0.9 2.6 0.00 0.00 0.00 92 1018.0
20260903061406 58 55 0.9 2.6 0.00 0.00 0.00 92 1018.1
20260903060904 58 209 0.0 1.7 0.00 0.00 0.00 92 1018.1
20260903060404 58 209 0.0 1.7 0.00 0.00 0.00 92 1018.2
20260903055904 57 223 0.9 2.6 0.00 0.00 0.00 92 1018.3
20260903055404 57 223 0.9 4.3 0.00 0.00 0.00 92 1018.3
20260903054905 57 234 3.5 7.0 0.00 0.00 0.00 92 1018.4
20260903054404 57 228 1.7 4.3 0.00 0.00 0.00 92 1018.2
20260903053904 57 55 0.9 1.7 0.00 0.00 0.00 92 1018.0
20260903053404 57 55 0.9 0.9 0.00 0.00 0.00 92 1018.0
20260903052904 57 55 0.9 1.7 0.00 0.00 0.00 92 1017.9
20260903052404 57 55 0.9 2.6 0.00 0.00 0.00 92 1017.9
20260903051904 57 55 0.0 0.0 0.00 0.00 0.00 92 1017.9
20260903050904 56 55 0.0 1.7 0.00 0.00 0.00 92 1017.7
20260903050404 56 55 0.0 1.7 0.00 0.00 0.00 92 1017.6
20260903045904 56 55 0.9 2.6 0.00 0.00 0.00 92 1017.6
20260903045404 56 61 1.7 2.6 0.00 0.00 0.00 92 1017.7
20260903044904 55 56 1.7 2.6 0.00 0.00 0.00 92 1017.6
20260903044404 55 54 2.6 4.3 0.00 0.00 0.00 92 1017.7
20260903042904 55 61 0.0 0.0 0.00 0.00 0.00 92 1017.8
20260903042404 55 61 0.0 0.0 0.00 0.00 0.00 92 1017.9
20260903041905 55 61 0.0 0.0 0.00 0.00 0.00 92 1017.8
20260903041404 55 61 0.0 0.0 0.00 0.00 0.00 92 1017.9
20260903040905 55 61 0.0 0.0 0.00 0.00 0.00 92 1017.9
20260903040404 55 61 0.0 0.0 0.00 0.00 0.00 92 1017.8
20260903035904 55 61 0.0 0.0 0.00 0.00 0.00 92 1017.7
20260903035404 55 61 0.0 0.0 0.00 0.00 0.00 92 1017.7
20260903033404 55 61 0.0 0.0 0.00 0.00 0.00 92 1017.7
20260903032904 55 61 0.0 0.0 0.00 0.00 0.00 92 1017.7
20260903032404 55 61 0.0 0.9 0.00 0.00 0.00 92 1017.7
20260903031404 56 61 0.9 1.7 0.00 0.00 0.00 92 1017.7
20260903030904 56 61 0.0 0.0 0.00 0.00 0.00 92 1017.6
20260903030404 56 61 0.0 0.0 0.00 0.00 0.00 92 1017.7
20260903025904 56 61 0.0 0.0 0.00 0.00 0.00 92 1017.7
20260903025404 56 61 0.0 0.0 0.00 0.00 0.00 92 1017.8
20260903024904 56 61 0.0 0.0 0.00 0.00 0.00 91 1017.8
20260903024404 56 61 0.0 0.0 0.00 0.00 0.00 91 1017.7
20260903023904 56 61 0.0 0.0 0.00 0.00 0.00 91 1017.7
20260903023404 56 61 0.0 0.0 0.00 0.00 0.00 91 1017.7
20260903022904 56 61 0.0 0.0 0.00 0.00 0.00 91 1017.7
20260903022405 56 61 0.0 0.0 0.00 0.00 0.00 91 1017.6
20260903021904 56 61 0.0 0.0 0.00 0.00 0.00 91 1017.6
20260903021404 56 61 0.9 1.7 0.00 0.00 0.00 91 1017.6
20260903020904 57 61 0.0 0.9 0.00 0.00 0.00 91 1017.6
20260903020404 57 61 0.0 1.7 0.00 0.00 0.00 91 1017.5
20260903015904 57 61 0.0 0.0 0.00 0.00 0.00 91 1017.6
20260903015405 57 61 0.0 0.0 0.00 0.00 0.00 91 1017.7
20260903014904 57 61 0.0 0.0 0.00 0.00 0.00 91 1017.7
20260903014404 57 61 0.0 2.6 0.00 0.00 0.00 91 1017.8
20260903013904 57 61 0.9 1.7 0.00 0.00 0.00 91 1017.7
20260903013405 57 61 0.9 2.6 0.00 0.00 0.00 91 1017.7
20260903012904 57 61 0.0 2.6 0.00 0.00 0.00 91 1017.7
20260903012404 58 61 0.9 1.7 0.00 0.00 0.00 91 1017.7
20260903011905 58 61 0.9 2.6 0.00 0.00 0.00 90 1017.7
20260903011404 58 61 0.9 2.6 0.00 0.00 0.00 90 1017.7
20260903005904 58 66 1.7 2.6 0.00 0.00 0.00 90 1017.8
20260903005404 58 68 2.6 4.3 0.00 0.00 0.00 89 1017.8
20260903004904 58 243 0.9 2.6 0.00 0.00 0.00 89 1017.8
20260903004404 59 237 0.9 1.7 0.00 0.00 0.00 89 1017.8
20260903003904 59 237 0.0 0.0 0.00 0.00 0.00 89 1017.8
20260903003404 59 237 0.0 0.0 0.00 0.00 0.00 89 1017.8
20260903002904 59 237 0.0 0.0 0.00 0.00 0.00 89 1017.9
20260903002404 59 237 0.0 0.0 0.00 0.00 0.00 89 1018.0
20260903001904 59 237 0.0 0.9 0.00 0.00 0.00 88 1017.9
20260903000904 60 58 0.0 1.7 0.00 0.00 0.00 87 1018.0
20260902235905 60 68 0.0 0.9 0.00 0.00 0.00 87 1017.8
20260902235404 60 68 0.0 1.7 0.00 0.00 0.00 86 1017.7
20260902234904 60 68 0.0 0.9 0.00 0.00 0.00 86 1017.8
20260902234405 60 68 0.0 2.6 0.00 0.00 0.00 85 1017.7
20260902233904 61 68 0.9 2.6 0.00 0.00 0.00 85 1017.7
20260902233404 61 68 0.9 2.6 0.00 0.00 0.00 85 1017.8
20260902232904 61 65 0.9 4.3 0.00 0.00 0.00 85 1017.9
20260902232404 61 46 1.7 4.3 0.00 0.00 0.00 85 1017.8
20260902231905 61 60 0.9 4.3 0.00 0.00 0.00 83 1017.8
20260902231405 61 54 0.9 4.3 0.00 0.00 0.00 83 1017.9
20260902230904 61 40 2.6 12.2 0.00 0.00 0.00 82 1018.0
20260902230404 60 200 0.9 4.3 0.00 0.00 0.00 81 1018.1
20260902225905 60 231 4.3 6.1 0.00 0.00 0.00 81 1018.1
20260902225405 60 276 0.0 1.7 0.00 0.00 0.00 81 1017.8
20260902224904 60 276 0.0 0.0 0.00 0.00 0.00 81 1017.7
20260902224404 60 276 0.0 0.9 0.00 0.00 0.00 81 1017.7
20260902223905 60 276 0.0 6.1 0.00 0.00 0.00 81 1017.9
20260902223405 60 32 0.0 2.6 0.00 0.00 0.00 81 1017.7
20260902222904 60 44 0.0 0.9 0.00 0.00 0.00 81 1017.5
20260902222404 60 44 0.0 0.0 0.00 0.00 0.00 81 1017.4
20260902221904 60 44 0.9 1.7 0.00 0.00 0.00 81 1017.4
20260902221404 60 44 1.7 2.6 0.00 0.00 0.00 81 1017.4
20260902220904 60 59 1.7 2.6 0.00 0.00 0.00 81 1017.4
20260902220405 60 85 0.9 2.6 0.00 0.00 0.00 81 1017.4
20260902215904 60 85 1.7 2.6 0.00 0.00 0.00 81 1017.5
20260902215405 60 86 0.9 2.6 0.00 0.00 0.00 81 1017.6
20260902214405 60 86 0.9 1.7 0.00 0.00 0.00 80 1017.6
20260902213904 60 86 0.0 0.0 0.00 0.00 0.00 79 1017.5
20260902213404 60 86 0.0 1.7 0.00 0.00 0.00 79 1017.6
20260902212404 60 86 0.0 0.0 0.00 0.00 0.00 78 1017.5
20260902211904 60 86 0.0 0.0 0.00 0.00 0.00 78 1017.5
20260902210904 61 86 0.0 0.0 0.00 0.00 0.00 77 1017.6
20260902210404 61 86 0.0 0.0 0.00 0.00 0.00 77 1017.5
20260902204904 62 86 0.0 0.0 0.00 0.00 0.00 76 1017.4
20260902204404 62 86 0.0 0.0 0.00 0.00 0.00 75 1017.3
20260902203904 62 86 0.0 0.0 0.00 0.00 0.00 75 1017.3
20260902203404 62 86 0.0 0.0 0.00 0.00 0.00 74 1017.3
20260902202905 63 86 0.0 0.0 0.00 0.00 0.00 74 1017.2
20260902202405 63 86 0.0 0.0 0.00 0.00 0.00 73 1017.2
20260902201904 63 86 0.0 0.0 0.00 0.00 0.00 73 1017.2
20260902200905 63 86 0.0 0.0 0.00 0.00 0.00 72 1017.0
20260902200405 64 86 0.0 0.0 0.00 0.00 0.00 71 1017.1
20260902195905 64 86 0.0 0.0 0.00 0.00 0.00 71 1017.1
20260902195404 64 86 0.9 1.7 0.00 0.00 0.00 70 1017.0
20260902194904 64 86 0.9 2.6 0.00 0.00 0.00 70 1017.0
20260902194405 64 86 1.7 2.6 0.00 0.00 0.00 70 1017.0
20260902193906 65 252 0.9 2.6 0.00 0.00 0.00 69 1017.0
20260902192904 65 252 0.0 0.0 0.00 0.00 0.00 68 1017.1
20260902192404 66 252 0.0 2.6 0.00 0.00 0.00 67 1017.2
20260902191904 66 252 0.9 1.7 0.00 0.00 0.00 66 1017.1
20260902191404 66 252 0.9 2.6 0.00 0.00 0.00 66 1017.1
20260902190904 66 251 1.7 2.6 0.00 0.00 0.00 66 1017.1
20260902190404 67 250 0.0 0.0 0.00 0.00 0.00 65 1017.1
20260902185904 67 250 0.0 0.0 0.00 0.00 0.00 65 1017.1
20260902184904 68 250 0.0 0.0 0.00 0.00 0.00 63 1017.2
20260902184404 68 250 0.0 0.0 0.00 0.00 0.00 62 1017.2
20260902183904 69 250 0.0 0.0 0.00 0.00 0.00 61 1017.2
20260902183404 69 250 0.0 0.0 0.00 0.00 0.00 61 1017.2
20260902182904 69 250 0.0 0.0 0.00 0.00 0.00 60 1017.1
20260902182404 70 250 0.0 1.7 0.00 0.00 0.00 60 1017.0
20260902181904 70 250 0.9 1.7 0.00 0.00 0.00 59 1016.9
20260902181404 70 250 0.9 1.7 0.00 0.00 0.00 59 1016.9
20260902180904 71 250 0.9 1.7 0.00 0.00 0.00 59 1016.7
20260902180405 71 250 1.7 1.7 0.00 0.00 0.00 58 1016.8
20260902175904 72 250 0.0 0.9 0.00 0.00 0.00 57 1016.8
20260902174904 72 250 0.0 0.9 0.00 0.00 0.00 57 1016.7
20260902174404 73 250 0.9 0.9 0.00 0.00 0.00 57 1016.7
20260902173404 73 250 0.0 0.0 0.00 0.00 0.00 57 1016.8
20260902171904 74 250 0.9 1.7 0.00 0.00 0.00 55 1016.6
20260902171404 75 250 0.0 0.0 0.00 0.00 0.00 55 1016.6
20260902170904 75 250 0.0 0.0 0.00 0.00 0.00 55 1016.6
20260902170404 75 250 0.0 0.0 0.00 0.00 0.00 55 1016.5
20260902165904 76 250 0.0 0.0 0.00 0.00 0.00 54 1016.5
20260902165404 76 250 0.0 0.0 0.00 0.00 0.00 53 1016.6
20260902164904 76 250 0.0 0.0 0.00 0.00 0.00 53 1016.6
20260902164405 77 250 0.0 0.0 0.00 0.00 0.00 51 1016.7
20260902163905 77 250 0.0 0.0 0.00 0.00 0.00 51 1016.7
20260902163404 77 250 0.0 0.0 0.00 0.00 0.00 50 1016.6
20260902162904 77 250 0.0 0.0 0.00 0.00 0.00 49 1016.6
20260902162405 78 250 0.0 0.0 0.00 0.00 0.00 49 1016.5
20260902161905 78 250 0.0 0.0 0.00 0.00 0.00 48 1016.5
20260902161404 78 250 0.0 0.0 0.00 0.00 0.00 48 1016.5
20260902160904 79 250 0.0 0.0 0.00 0.00 0.00 47 1016.6
20260902160404 79 250 0.0 0.0 0.00 0.00 0.00 46 1016.7
20260902155904 79 250 0.0 0.0 0.00 0.00 0.00 45 1016.7
20260902155405 79 250 0.0 0.0 0.00 0.00 0.00 44 1016.7
20260902154904 80 250 0.0 1.7 0.00 0.00 0.00 44 1016.7
20260902154404 80 250 0.0 1.7 0.00 0.00 0.00 43 1016.8
20260902153905 80 250 0.9 1.7 0.00 0.00 0.00 43 1016.8
20260902153404 80 250 0.9 2.6 0.00 0.00 0.00 43 1016.8
20260902152904 81 293 0.9 2.6 0.00 0.00 0.00 42 1016.9
20260902152405 81 296 0.9 2.6 0.00 0.00 0.00 41 1017.0
20260902151904 81 280 2.6 4.3 0.00 0.00 0.00 40 1017.0
20260902150404 82 233 0.9 2.6 0.00 0.00 0.00 40 1017.0
20260902145904 82 233 1.7 4.3 0.00 0.00 0.00 40 1017.1
20260902145404 82 237 1.7 2.6 0.00 0.00 0.00 41 1017.1
20260902144904 82 240 1.7 2.6 0.00 0.00 0.00 41 1017.1
20260902143904 82 231 1.7 2.6 0.00 0.00 0.00 41 1017.2
20260902143404 82 277 0.9 2.6 0.00 0.00 0.00 40 1017.2
20260902142904 82 276 1.7 4.3 0.00 0.00 0.00 40 1017.2
20260902142404 82 285 2.6 6.1 0.00 0.00 0.00 41 1017.3
20260902141404 82 218 2.6 6.1 0.00 0.00 0.00 41 1017.3
20260902140904 82 198 4.3 7.0 0.00 0.00 0.00 40 1017.3
20260902140405 82 212 3.5 7.0 0.00 0.00 0.00 40 1017.3
20260902135904 82 234 4.3 7.0 0.00 0.00 0.00 39 1017.4
20260902135405 83 208 4.3 7.8 0.00 0.00 0.00 39 1017.4
20260902134904 83 195 2.6 5.2 0.00 0.00 0.00 42 1017.5
20260902133904 82 218 2.6 6.1 0.00 0.00 0.00 42 1017.5
20260902133404 82 231 1.7 5.2 0.00 0.00 0.00 41 1017.5
20260902132904 81 189 4.3 7.8 0.00 0.00 0.00 42 1017.6
20260902132404 81 202 2.6 7.0 0.00 0.00 0.00 42 1017.7
20260902131905 81 216 2.6 7.0 0.00 0.00 0.00 41 1017.7
20260902131404 81 214 4.3 7.8 0.00 0.00 0.00 42 1017.7
20260902130904 80 172 4.3 8.7 0.00 0.00 0.00 41 1017.7
20260902125904 80 232 3.5 7.0 0.00 0.00 0.00 43 1017.8
20260902125404 80 230 2.6 7.8 0.00 0.00 0.00 44 1017.8
20260902124905 80 214 4.3 10.4 0.00 0.00 0.00 43 1017.9
20260902123904 79 271 2.6 5.2 0.00 0.00 0.00 44 1018.0